Simultaneous Nadir Overpasses (SNOs) Predictions

Prediction of SNOs between METOP-A and TERRA Satellite Orbit:

Table of predicted SNOs for the next 14.0 days since TLE Epoch: 5/9/2020
Index Date (METOP-A) Time (METOP-A) Lat,Lon (METOP-A) SZA (METOP-A ) Date (TERRA) Time (TERRA) Lat,Lon (TERRA) SZA (TERRA ) Distance(km) Time Diff (sec)
1 05/09/2020 21:41:49 -81.43, 83.90 113.04 05/09/2020 21:42:59 -81.42, 84.00 113.00 1.68 70
2 05/09/2020 22:32:29 81.42,-108.49 66.98 05/09/2020 22:32:26 81.41,-108.60 66.96 2.06 3
3 05/12/2020 17:16:10 -81.42, 150.37 113.74 05/12/2020 17:17:13 -81.43, 150.52 113.69 2.61 63
4 05/12/2020 18:06:50 81.42, -42.05 66.28 05/12/2020 18:06:40 81.42, -42.11 66.26 1.07 10
5 05/15/2020 12:50:32 -81.42,-143.18 114.41 05/15/2020 12:51:28 -81.43,-143.01 114.35 3.07 56
6 05/15/2020 13:41:12 81.42, 24.37 65.61 05/15/2020 13:40:55 81.42, 24.33 65.60 0.69 17
7 05/18/2020 08:24:54 -81.42, -76.75 115.04 05/18/2020 08:25:43 -81.43, -76.58 114.99 2.97 49
8 05/18/2020 09:15:34 81.41, 90.78 64.98 05/18/2020 09:15:10 81.41, 90.73 64.96 0.86 24
9 05/21/2020 03:59:15 -81.42, -10.33 115.62 05/21/2020 03:59:57 -81.43, -10.21 115.58 2.30 42




NCC Satellite Simultaneous Nadir Overpasses (SNOs) Prediction Service
